| time (UTC) | temp F | wind direction | speed MPH | gust MPH | rain 1hr in | rain 24hr in | rain mn in | humidity % | barometer mb |
| 20260901134005 | 83 | 24 | 1.0 | 3.0 | 0.00 | 0.00 | 0.00 | 89 | 1016.0 |
| 20260901133004 | 83 | 352 | 1.0 | 4.0 | 0.00 | 0.00 | 0.00 | 91 | 1016.0 |
| 20260901132005 | 82 | 92 | 1.0 | 4.0 | 0.00 | 0.00 | 0.00 | 91 | 1016.1 |
| 20260901131005 | 82 | 71 | 1.0 | 3.0 | 0.00 | 0.00 | 0.00 | 91 | 1016.0 |
| 20260901130216 | 82 | 26 | 1.0 | 4.0 | 0.00 | 0.00 | 0.00 | 92 | 1015.9 |
| 20260901125005 | 80 | 65 | 1.0 | 4.0 | 0.00 | 0.00 | 0.00 | 95 | 1016.0 |
| 20260901124005 | 79 | 8 | 1.0 | 2.0 | 0.00 | 0.00 | 0.00 | 97 | 1016.0 |
| 20260901123005 | 78 | 352 | 1.0 | 3.0 | 0.00 | 0.00 | 0.00 | 99 | 1015.7 |
| 20260901122005 | 78 | 347 | 1.0 | 2.0 | 0.00 | 0.00 | 0.00 | 99 | 1015.5 |
| 20260901121004 | 78 | 0 | 0.0 | 0.0 | 0.00 | 0.00 | 0.00 | 99 | 1015.4 |
| 20260901120005 | 77 | 1 | 1.0 | 2.0 | 0.00 | 0.00 | 0.00 | 99 | 1015.4 |
| 20260901115004 | 77 | 354 | 1.0 | 2.0 | 0.00 | 0.00 | 0.00 | 99 | 1015.7 |
| 20260901114218 | 76 | 355 | 0.0 | 2.0 | 0.00 | 0.00 | 0.00 | 99 | 1015.5 |
| 20260901113004 | 76 | 0 | 0.0 | 0.0 | 0.00 | 0.00 | 0.00 | 99 | 1015.3 |
| 20260901112004 | 76 | 351 | 0.0 | 1.0 | 0.00 | 0.00 | 0.00 | 99 | 1015.1 |
| 20260901111216 | 76 | 351 | 0.0 | 1.0 | 0.00 | 0.00 | 0.00 | 99 | 1015.4 |
| 20260901110217 | 76 | 352 | 0.0 | 1.0 | 0.00 | 0.00 | 0.00 | 99 | 1015.0 |
| 20260901105004 | 76 | 0 | 0.0 | 0.0 | 0.00 | 0.00 | 0.00 | 99 | 1015.0 |
| 20260901104005 | 76 | 0 | 0.0 | 0.0 | 0.00 | 0.00 | 0.00 | 99 | 1014.7 |
| 20260901103004 | 76 | 0 | 0.0 | 0.0 | 0.00 | 0.00 | 0.00 | 99 | 1014.5 |
| 20260901102004 | 76 | 0 | 0.0 | 0.0 | 0.00 | 0.00 | 0.00 | 99 | 1014.5 |
| 20260901101005 | 76 | 0 | 0.0 | 0.0 | 0.00 | 0.00 | 0.00 | 99 | 1014.6 |
| 20260901100218 | 76 | 0 | 0.0 | 0.0 | 0.00 | 0.00 | 0.00 | 99 | 1014.3 |
| 20260901095219 | 76 | 28 | 0.0 | 1.0 | 0.00 | 0.00 | 0.00 | 99 | 1014.3 |
| 20260901094004 | 76 | 0 | 0.0 | 0.0 | 0.00 | 0.00 | 0.00 | 99 | 1014.4 |
| 20260901093005 | 76 | 0 | 0.0 | 0.0 | 0.00 | 0.00 | 0.00 | 99 | 1014.6 |
| 20260901092004 | 76 | 28 | 0.0 | 1.0 | 0.00 | 0.00 | 0.00 | 99 | 1014.4 |
| 20260901091217 | 76 | 0 | 0.0 | 0.0 | 0.00 | 0.00 | 0.00 | 99 | 1014.5 |
| 20260901090005 | 76 | 0 | 0.0 | 0.0 | 0.00 | 0.00 | 0.00 | 99 | 1014.7 |
| 20260901085004 | 76 | 0 | 0.0 | 0.0 | 0.00 | 0.00 | 0.00 | 99 | 1014.6 |
| 20260901084215 | 76 | 0 | 0.0 | 0.0 | 0.00 | 0.00 | 0.00 | 99 | 1014.5 |
| 20260901083005 | 76 | 25 | 0.0 | 1.0 | 0.00 | 0.00 | 0.00 | 99 | 1014.5 |
| 20260901082005 | 76 | 0 | 0.0 | 0.0 | 0.00 | 0.00 | 0.00 | 99 | 1014.3 |
| 20260901081004 | 76 | 25 | 0.0 | 1.0 | 0.00 | 0.00 | 0.00 | 98 | 1014.4 |
| 20260901080005 | 76 | 25 | 0.0 | 1.0 | 0.00 | 0.00 | 0.00 | 98 | 1014.4 |
| 20260901075005 | 76 | 0 | 0.0 | 0.0 | 0.00 | 0.00 | 0.00 | 98 | 1014.3 |
| 20260901074005 | 76 | 0 | 0.0 | 0.0 | 0.00 | 0.00 | 0.00 | 98 | 1014.6 |
| 20260901073004 | 76 | 0 | 0.0 | 0.0 | 0.00 | 0.00 | 0.00 | 98 | 1014.6 |
| 20260901072005 | 76 | 24 | 0.0 | 1.0 | 0.00 | 0.00 | 0.00 | 98 | 1014.4 |
| 20260901071004 | 76 | 24 | 0.0 | 1.0 | 0.00 | 0.00 | 0.00 | 98 | 1014.7 |
| 20260901070005 | 77 | 0 | 0.0 | 0.0 | 0.00 | 0.00 | 0.00 | 98 | 1014.8 |
| 20260901065004 | 77 | 0 | 0.0 | 0.0 | 0.00 | 0.00 | 0.00 | 98 | 1014.7 |
| 20260901064004 | 77 | 0 | 0.0 | 0.0 | 0.00 | 0.00 | 0.00 | 98 | 1015.0 |
| 20260901063005 | 77 | 0 | 0.0 | 0.0 | 0.00 | 0.00 | 0.00 | 98 | 1015.1 |
| 20260901062005 | 77 | 0 | 0.0 | 0.0 | 0.00 | 0.00 | 0.00 | 98 | 1015.1 |
| 20260901061005 | 77 | 0 | 0.0 | 0.0 | 0.00 | 0.00 | 0.00 | 97 | 1015.2 |
| 20260901060005 | 77 | 0 | 0.0 | 0.0 | 0.00 | 0.00 | 0.00 | 97 | 1015.1 |
| 20260901055216 | 77 | 0 | 0.0 | 0.0 | 0.00 | 0.00 | 0.00 | 97 | 1015.3 |
| 20260901054005 | 77 | 0 | 0.0 | 0.0 | 0.00 | 0.00 | 0.00 | 97 | 1015.9 |
| 20260901053218 | 77 | 0 | 0.0 | 0.0 | 0.00 | 0.00 | 0.00 | 97 | 1015.7 |
| 20260901052005 | 77 | 0 | 0.0 | 0.0 | 0.00 | 0.00 | 0.00 | 97 | 1015.5 |
| 20260901051215 | 77 | 34 | 0.0 | 1.0 | 0.00 | 0.00 | 0.00 | 97 | 1015.8 |
| 20260901050005 | 78 | 36 | 1.0 | 2.0 | 0.00 | 0.00 | 0.00 | 97 | 1015.8 |
| 20260901045005 | 78 | 56 | 0.0 | 1.0 | 0.00 | 0.00 | 0.00 | 97 | 1016.1 |
| 20260901044004 | 78 | 0 | 0.0 | 0.0 | 0.00 | 0.00 | 0.00 | 96 | 1016.0 |
| 20260901043005 | 78 | 0 | 0.0 | 0.0 | 0.00 | 0.00 | 0.00 | 96 | 1016.0 |
| 20260901042005 | 78 | 0 | 0.0 | 0.0 | 0.00 | 0.00 | 0.00 | 96 | 1016.0 |
| 20260901041004 | 78 | 0 | 0.0 | 0.0 | 0.00 | 0.00 | 0.00 | 96 | 1016.0 |
| 20260901040030 | 78 | 78 | 0.0 | 0.0 | 0.00 | 0.00 | 0.00 | 96 | 1016.2 |
| 20260901035004 | 79 | 79 | 0.0 | 1.0 | 0.00 | 0.00 | 0.00 | 96 | 1016.0 |
| 20260901034005 | 78 | 0 | 0.0 | 0.0 | 0.00 | 0.00 | 0.00 | 95 | 1016.3 |
| 20260901033005 | 78 | 0 | 0.0 | 0.0 | 0.00 | 0.00 | 0.00 | 95 | 1016.2 |
| 20260901032004 | 79 | 79 | 0.0 | 0.0 | 0.00 | 0.00 | 0.00 | 95 | 1016.4 |
| 20260901031005 | 79 | 83 | 0.0 | 1.0 | 0.00 | 0.00 | 0.00 | 95 | 1016.1 |
| 20260901030005 | 79 | 0 | 0.0 | 0.0 | 0.00 | 0.00 | 0.00 | 95 | 1016.4 |
| 20260901025005 | 79 | 0 | 0.0 | 0.0 | 0.00 | 0.00 | 0.00 | 94 | 1016.2 |
| 20260901024005 | 79 | 103 | 0.0 | 1.0 | 0.00 | 0.00 | 0.00 | 94 | 1016.3 |
| 20260901023005 | 79 | 74 | 0.0 | 1.0 | 0.00 | 0.00 | 0.00 | 94 | 1016.5 |
| 20260901022005 | 79 | 74 | 0.0 | 3.0 | 0.00 | 0.00 | 0.00 | 94 | 1016.5 |
| 20260901021004 | 79 | 97 | 0.0 | 1.0 | 0.00 | 0.00 | 0.00 | 94 | 1016.4 |
| 20260901020005 | 80 | 84 | 1.0 | 3.0 | 0.00 | 0.00 | 0.00 | 93 | 1016.2 |
| 20260901015005 | 80 | 89 | 0.0 | 2.0 | 0.00 | 0.00 | 0.00 | 93 | 1016.2 |
| 20260901014004 | 80 | 83 | 0.0 | 3.0 | 0.00 | 0.00 | 0.00 | 93 | 1016.2 |
| 20260901013005 | 80 | 81 | 1.0 | 3.0 | 0.00 | 0.00 | 0.00 | 93 | 1016.0 |
| 20260901012004 | 80 | 82 | 2.0 | 7.0 | 0.00 | 0.00 | 0.00 | 93 | 1015.7 |
| 20260901011005 | 80 | 78 | 2.0 | 4.0 | 0.00 | 0.00 | 0.00 | 93 | 1015.7 |
| 20260901010005 | 80 | 86 | 2.0 | 7.0 | 0.00 | 0.00 | 0.00 | 92 | 1015.6 |
| 20260901005005 | 80 | 78 | 1.0 | 6.0 | 0.00 | 0.00 | 0.00 | 91 | 1015.5 |
| 20260901004005 | 80 | 80 | 1.0 | 4.0 | 0.00 | 0.00 | 0.00 | 91 | 1015.6 |
| 20260901003005 | 81 | 71 | 1.0 | 3.0 | 0.00 | 0.00 | 0.00 | 90 | 1015.3 |
| 20260901002004 | 81 | 79 | 2.0 | 8.0 | 0.00 | 0.00 | 0.00 | 90 | 1015.1 |
| 20260901001004 | 81 | 78 | 1.0 | 3.0 | 0.00 | 0.00 | 0.00 | 89 | 1015.2 |
| 20260901000219 | 81 | 74 | 1.0 | 4.0 | 0.00 | 0.00 | 0.00 | 89 | 1015.1 |
| 20260831235215 | 82 | 74 | 1.0 | 6.0 | 0.00 | 0.00 | 0.00 | 88 | 1015.0 |
| 20260831234005 | 82 | 77 | 2.0 | 6.0 | 0.00 | 0.00 | 0.00 | 88 | 1015.0 |
| 20260831233004 | 82 | 77 | 2.0 | 8.0 | 0.00 | 0.00 | 0.00 | 87 | 1015.1 |
| 20260831232005 | 83 | 82 | 1.0 | 4.0 | 0.00 | 0.00 | 0.00 | 86 | 1015.0 |
| 20260831231004 | 83 | 75 | 2.0 | 7.0 | 0.00 | 0.00 | 0.00 | 85 | 1015.2 |
| 20260831230215 | 83 | 75 | 1.0 | 2.0 | 0.00 | 0.00 | 0.00 | 84 | 1015.3 |
| 20260831225215 | 83 | 94 | 1.0 | 4.0 | 0.00 | 0.00 | 0.00 | 84 | 1015.2 |
| 20260831224004 | 84 | 83 | 1.0 | 6.0 | 0.00 | 0.00 | 0.00 | 84 | 1015.2 |
| 20260831223005 | 84 | 90 | 1.0 | 4.0 | 0.00 | 0.00 | 0.00 | 83 | 1015.0 |
| 20260831222004 | 84 | 74 | 2.0 | 7.0 | 0.00 | 0.00 | 0.00 | 83 | 1015.0 |
| 20260831221005 | 84 | 81 | 2.0 | 9.0 | 0.00 | 0.00 | 0.00 | 81 | 1015.1 |
| 20260831220005 | 85 | 85 | 2.0 | 7.0 | 0.00 | 0.00 | 0.00 | 82 | 1015.1 |
| 20260831215005 | 85 | 72 | 3.0 | 10.0 | 0.00 | 0.00 | 0.00 | 82 | 1015.0 |
| 20260831214004 | 87 | 92 | 1.0 | 4.0 | 0.00 | 0.00 | 0.00 | 79 | 1015.2 |
| 20260831213004 | 88 | 78 | 2.0 | 5.0 | 0.00 | 0.00 | 0.00 | 77 | 1015.1 |
| 20260831212004 | 87 | 85 | 3.0 | 8.0 | 0.00 | 0.00 | 0.00 | 79 | 1015.0 |
| 20260831211005 | 87 | 78 | 3.0 | 11.0 | 0.00 | 0.00 | 0.00 | 78 | 1015.0 |
| 20260831210005 | 87 | 80 | 3.0 | 10.0 | 0.00 | 0.00 | 0.00 | 78 | 1014.6 |
| 20260831205005 | 87 | 94 | 2.0 | 7.0 | 0.00 | 0.00 | 0.00 | 79 | 1014.8 |
| 20260831204218 | 88 | 73 | 3.0 | 11.0 | 0.00 | 0.00 | 0.00 | 77 | 1014.9 |
| 20260831203005 | 88 | 81 | 3.0 | 10.0 | 0.00 | 0.00 | 0.00 | 77 | 1015.1 |
| 20260831202005 | 88 | 76 | 2.0 | 9.0 | 0.00 | 0.00 | 0.00 | 78 | 1015.2 |
| 20260831201216 | 87 | 81 | 3.0 | 8.0 | 0.00 | 0.00 | 0.00 | 79 | 1014.8 |
| 20260831200005 | 87 | 81 | 4.0 | 11.0 | 0.00 | 0.00 | 0.00 | 80 | 1015.1 |
| 20260831195218 | 87 | 81 | 3.0 | 10.0 | 0.00 | 0.00 | 0.00 | 79 | 1015.0 |
| 20260831194005 | 87 | 81 | 5.0 | 11.0 | 0.00 | 0.00 | 0.00 | 78 | 1014.9 |
| 20260831193005 | 87 | 84 | 3.0 | 7.0 | 0.00 | 0.00 | 0.00 | 76 | 1015.0 |
| 20260831192005 | 86 | 84 | 3.0 | 10.0 | 0.00 | 0.00 | 0.00 | 81 | 1014.9 |
| 20260831191005 | 86 | 84 | 2.0 | 8.0 | 0.00 | 0.00 | 0.00 | 80 | 1015.3 |
| 20260831190005 | 85 | 84 | 2.0 | 5.0 | 0.00 | 0.00 | 0.00 | 81 | 1015.2 |
| 20260831185218 | 84 | 81 | 3.0 | 10.0 | 0.00 | 0.00 | 0.00 | 80 | 1015.2 |
| 20260831184004 | 84 | 80 | 3.0 | 8.0 | 0.00 | 0.00 | 0.00 | 81 | 1015.3 |
| 20260831183005 | 85 | 80 | 3.0 | 9.0 | 0.00 | 0.00 | 0.00 | 79 | 1015.5 |
| 20260831182004 | 85 | 75 | 3.0 | 9.0 | 0.00 | 0.00 | 0.00 | 78 | 1015.7 |
| 20260831181004 | 87 | 86 | 3.0 | 14.0 | 0.00 | 0.00 | 0.00 | 75 | 1015.7 |
| 20260831180005 | 88 | 83 | 4.0 | 10.0 | 0.00 | 0.00 | 0.00 | 74 | 1015.9 |
| 20260831175005 | 89 | 87 | 3.0 | 10.0 | 0.00 | 0.00 | 0.00 | 73 | 1015.7 |
| 20260831174215 | 88 | 81 | 4.0 | 9.0 | 0.00 | 0.00 | 0.00 | 76 | 1015.8 |
| 20260831173005 | 88 | 65 | 3.0 | 15.0 | 0.00 | 0.00 | 0.00 | 75 | 1016.0 |
| 20260831172004 | 91 | 52 | 2.0 | 6.0 | 0.00 | 0.00 | 0.00 | 66 | 1016.1 |
| 20260831171005 | 92 | 22 | 1.0 | 4.0 | 0.00 | 0.00 | 0.00 | 66 | 1016.1 |
| 20260831170005 | 89 | 331 | 1.0 | 3.0 | 0.00 | 0.00 | 0.00 | 71 | 1016.3 |
| 20260831165005 | 89 | 347 | 1.0 | 3.0 | 0.00 | 0.00 | 0.00 | 69 | 1016.3 |
| 20260831164004 | 88 | 9 | 1.0 | 2.0 | 0.00 | 0.00 | 0.00 | 73 | 1016.6 |
| 20260831163004 | 89 | 343 | 1.0 | 4.0 | 0.00 | 0.00 | 0.00 | 71 | 1016.6 |
| 20260831162005 | 90 | 349 | 2.0 | 4.0 | 0.00 | 0.00 | 0.00 | 71 | 1016.6 |
| 20260831161004 | 91 | 28 | 1.0 | 3.0 | 0.00 | 0.00 | 0.00 | 67 | 1016.7 |
| 20260831160005 | 91 | 328 | 1.0 | 3.0 | 0.00 | 0.00 | 0.00 | 65 | 1016.9 |
| 20260831155005 | 90 | 80 | 1.0 | 3.0 | 0.00 | 0.00 | 0.00 | 66 | 1017.2 |
| 20260831154004 | 90 | 114 | 1.0 | 3.0 | 0.00 | 0.00 | 0.00 | 69 | 1017.2 |
| 20260831153005 | 89 | 71 | 1.0 | 6.0 | 0.00 | 0.00 | 0.00 | 70 | 1017.1 |
| 20260831152005 | 89 | 46 | 1.0 | 3.0 | 0.00 | 0.00 | 0.00 | 71 | 1017.0 |
| 20260831151005 | 88 | 342 | 2.0 | 4.0 | 0.00 | 0.00 | 0.00 | 75 | 1017.0 |
| 20260831150215 | 88 | 359 | 1.0 | 4.0 | 0.00 | 0.00 | 0.00 | 76 | 1017.1 |
| 20260831145004 | 89 | 69 | 1.0 | 3.0 | 0.00 | 0.00 | 0.00 | 75 | 1016.8 |
| 20260831144005 | 89 | 97 | 0.0 | 3.0 | 0.00 | 0.00 | 0.00 | 72 | 1017.1 |
| 20260831143004 | 88 | 96 | 0.0 | 2.0 | 0.00 | 0.00 | 0.00 | 74 | 1016.8 |
| 20260831142005 | 85 | 40 | 1.0 | 2.0 | 0.00 | 0.00 | 0.00 | 80 | 1016.7 |
| 20260831141004 | 83 | 68 | 1.0 | 2.0 | 0.00 | 0.00 | 0.00 | 84 | 1016.4 |
| 20260831140005 | 82 | 76 | 1.0 | 2.0 | 0.00 | 0.00 | 0.00 | 87 | 1016.5 |
| 20260831135004 | 82 | 62 | 1.0 | 2.0 | 0.00 | 0.00 | 0.00 | 86 | 1016.2 |